This week's VEGA launch KEPs are shown below. MASAT-1 has been designated MO-72 by AMSAT (see www.amsat.org).
This week I have used the catalog number that is claimed by the satellite's home website (see www.amsat.org). Some websites do not indicate a catalog number. MO-72 (MASAT-1) and E-STAR claim the same catalog number (38079).
The satellites are too close together to distinguish who is who and the same KEPs work for several VEGA cubesats. I await more input before I choose.
The current KEPs are as follows: ALMASAT1 1 38078U 12006B 12054.81752532 .00014251 00000-0 41679-3 0 196 2 38078 069.4835 215.4752 0775338 031.3184 333.1754 14.04699930 1464 MO-72 1 38079U 12006C 12054.52375822 .00027779 00000-0 72603-3 0 299 2 38079 069.4926 216.0919 0779154 031.7546 332.8100 14.06086925 1416 OBJECT D 1 38080U 12006D 12054.52519702 .00028219 00000-0 74626-3 0 318 2 38080 069.4913 216.0893 0778939 031.6156 332.9274 14.05889150 1414 OBJECT E 1 38081U 12006E 12054.80988760 .00027398 00000-0 73195-3 0 333 2 38081 069.4855 215.4451 0778010 031.3761 333.1357 14.05883490 1452 XATCOBEO 1 38082U 12006F 12054.73910927 .00032640 00000-0 87928-3 0 319 2 38082 069.4861 215.6069 0777092 031.4418 333.0802 14.05882265 1448 OBJECT G 1 38083U 12006G 12054.73876769 .00031005 00000-0 82567-3 0 313 2 38083 069.4841 215.6050 0778100 031.4731 333.0584 14.05911687 1444 OBJECT H 1 38084U 12006H 12054.73969709 .00025492 00000-0 68574-3 0 260 2 38084 069.4890 215.6111 0778131 031.4453 333.0828 14.05727339 1442 GOLIAT 1 38085U 12006J 12054.73978438 .00025984 00000-0 70136-3 0 252 2 38085 069.4842 215.6079 0777813 031.4415 333.0844 14.05721488 1444
participants (1)
-
Ray Hoad